This is the latest recevied weather packets stored in our database for station/object KC3ULW-13. If no packets are shown the sender has not sent any weather packets the latest 10 day(s).
| Time | Temp. | Humidity | Pressure | Rain* | Wind** | Luminosity | Snow |
|---|---|---|---|---|---|---|---|
| 1777725331 | 4.44° C | 94% | 1018.4 hPa | 0 mm | - | 107 W/m² | - |
| 1777725028 | 3.89° C | 94% | 1018.1 hPa | 0 mm | - | 92 W/m² | - |
| 1777724725 | 3.89° C | 94% | 1018.2 hPa | 0 mm | - | 83 W/m² | - |
| 1777724422 | 3.89° C | 94% | 1018.6 hPa | 0 mm | - | 63 W/m² | - |
| 1777724119 | 3.89° C | 94% | 1018.5 hPa | 0 mm | - | 35 W/m² | - |
| 1777723817 | 3.89° C | 94% | 1018.3 hPa | 0 mm | - | 19 W/m² | - |
| 1777722909 | 3.89° C | 94% | 1018.5 hPa | 0 mm | - | 24 W/m² | - |
| 1777721997 | 3.89° C | 94% | 1018.2 hPa | 0 mm | - | 63 W/m² | - |
| 1777721695 | 3.33° C | 94% | 1018.1 hPa | 0 mm | - | 51 W/m² | - |
| 1777721393 | 3.33° C | 94% | 1018.4 hPa | 0 mm | - | 38 W/m² | - |
| 1777721090 | 3.33° C | 94% | 1018.5 hPa | 0 mm | - | 35 W/m² | - |
| 1777720788 | 3.33° C | 94% | 1018.3 hPa | 0 mm | - | 64 W/m² | - |
| 1777720485 | 2.78° C | 94% | 1018.6 hPa | 0 mm | - | 39 W/m² | - |
| 1777720182 | 2.78° C | 94% | 1018.4 hPa | 0 mm | - | 34 W/m² | - |
| 1777719880 | 2.78° C | 94% | 1018.3 hPa | 0 mm | - | 32 W/m² | - |
| 1777719577 | 2.78° C | 94% | 1018.2 hPa | 0 mm | - | 30 W/m² | - |
| 1777719274 | 2.78° C | 94% | 1018.2 hPa | 0 mm | - | 23 W/m² | - |
| 1777718972 | 2.78° C | 94% | 1018.3 hPa | 0 mm | - | 18 W/m² | - |
| 1777718670 | 2.22° C | 94% | 1018.2 hPa | 0 mm | - | 16 W/m² | - |
| 1777718366 | 2.22° C | 93% | 1018.3 hPa | 0 mm | - | 10 W/m² | - |
| 1777718064 | 2.22° C | 93% | 1018.5 hPa | 0 mm | - | 6 W/m² | - |
| 1777717761 | 2.22° C | 94% | 1018.4 hPa | 0 mm | - | 3 W/m² | - |
| 1777717457 | 2.22° C | 93% | 1018.2 hPa | 0 mm | - | 1 W/m² | - |
| 1777717155 | 2.22° C | 93% | 1018.2 hPa | 0 mm | - | 0 W/m² | - |
| 1777716853 | 2.22° C | 93% | 1018.7 hPa | 0 mm | - | 0 W/m² | - |
* Rain latest hour (hover to see other rain measurements)
** Current wind speed in m/s (hover to see current wind gust speed)